Other Public Products
Issued by NWS Charleston, SC

Home | Current Version | Previous Version | Text Only | Print | Product List | Glossary On
Versions: 1 2 3 4 5 6 7 8 9 10 11 12 13 14 15 16 17 18 19 20 21 22 23 24 25 26 27 28 29 30 31 32 33 34 35 36 37 38 39 40 41 42 43 44 45 46 47 48 49 50
000
FPUS82 KCHS 240427
OPUCHS

TEST...KCHS/KSAV Gateway Observations...TEST
National Weather Service Charleston SC
1200 AM EDT FRI MAR 24 2017

NOTE: "fair" indicates few or no clouds below 12,000 feet with no
significant weather and/or obstructions to visibility.

SCZ050-WAZ558-NCZ071-TXZ119-213-PAZ071-DCZ001-FLZ074-172-MI076-
NYZ176-178-MAZ016-IL014-TNZ027-NJZ106-GAZ044-MD014-240500-

...Gateway Observations for Charleston International...

CITY           SKY/WX    TMP DP  RH WIND       PRES   REMARKS
Chas Airport   CLEAR     50  42  74 E10       30.49F
Seattle        LGT RAIN  46  43  89 NW3       29.90F
Charlotte      PTCLDY    49  25  39 SE7       30.50S
Dallas DFW     PTCLDY    75  46  35 S23G38    29.87R
Dallas Love    PTCLDY    74  44  34 S22G33    29.89S
Philladelphia  CLEAR     36  20  52 S7        30.56F WCI  30
Wash National  CLEAR     38  21  50 S13       30.55F WCI  30
Baltimore      PTCLDY    36  18  48 S5        30.54F WCI  32
Miami          CLOUDY    72  63  73 NE14G24   30.24S
Detroit        LGT RAIN  38  28  67 E3        30.21S
Newark         PTCLDY    36  21  54 S3        30.53F
Laguardia      PTCLDY    40  22  48 SW7       30.53F WCI  35
J F K          PTCLDY    37  27  67 S10       30.55F WCI  30
Boston Logan   CLEAR     33   5  30 W9        30.53S WCI  25
Ft. Lauderdale LGT RAIN  70  64  81 NE17G32   30.24S
Chicago O`Hare MOCLDY    46  32  58 S7        30.02F
Chicago Midway CLOUDY    51  32  48 S9        30.02F
Houston Bush   MOCLDY    70  62  76 S13G25    30.05F
Houston Hobby  PTCLDY    69  63  81 SE13G18   30.05F
Nashville      CLEAR     63  42  46 S14       30.22F
Atlanta        CLOUDY    60  39  45 SE8       30.41R

$$

GAZ044-118-TXZ119-213-NCZ071-DCZ001-MDZ014-506-PAZ021-071-NJZ106-
NYZ176-178-MAZ106-OHZ011-021-055-MIZ076-KYZ091-ILZ014-INZ047-
MNZ060-ONZ431-240500-

...Gateway Observations for Savannah International...

CITY           SKY/WX    TMP DP  RH WIND       PRES   REMARKS
Savannah Arpt  NOT AVBL
Atlanta        CLOUDY    60  39  45 SE8       30.41R
Charlotte      PTCLDY    49  25  39 SE7       30.50S
Dallas DFW     PTCLDY    75  46  35 S23G38    29.87R
Houston Bush   MOCLDY    70  62  76 S13G25    30.05F
Wash National  CLEAR     38  21  50 S13       30.55F WCI  30
Wash Dulles    CLEAR     36  21  54 SE7       30.51F WCI  30
Baltimore      PTCLDY    36  18  48 S5        30.54F WCI  32
Philadelphia   CLEAR     36  20  52 S7        30.56F WCI  30
Newark         PTCLDY    36  21  54 S3        30.53F
Laguardia      PTCLDY    40  22  48 SW7       30.53F WCI  35
J F K          PTCLDY    37  27  67 S10       30.55F WCI  30
Boston         CLEAR     33   5  30 W9        30.53S WCI  25
Pittsburg      PTCLDY    42   9  25 SE7       30.27F
Akron          CLOUDY    42  10  27 SE10      30.24F
Cleveland      MOCLDY    44  11  26 S9        30.25F
Cincinnati     MOCLDY    51  34  52 S9        30.20F
Columbus       CLOUDY    47  26  43 S3        30.22S
Detroit        LGT RAIN  38  28  67 E3        30.21S
Chicago O`Hare MOCLDY    46  32  58 S7        30.02F
Minneapolis    LGT RAIN  38  36  92 NE5       29.86R FOG     WCI  34
Indianapolis   PTCLDY    50  30  46 SE10      30.13F
Toronto Canada CLOUDY    34  23  64 SE9       30.27F WCI  26

$$




USA.gov is the U.S. government's official web portal to all federal, state and local government web resources and services.